Holbrook, NY

1:06 PM EST on December 09, 2016 (GMT -0500)
Long Island Mac Arthur

Weather History for KISP - November, 2013

Change the Weather History Date:

Tuesday, November 26, 2013

  Actual Average Record
Temperature  
Mean Temperature 44 °F 42 °F  
Max Temperature 53 °F 50 °F 66 °F (2011)
Min Temperature 35 °F 34 °F 19 °F (1993)
Degree Days  
Heating Degree Days 21 23  
Month to date heating degree days 528 499  
Since 1 July heating degree days 850 919  
Cooling Degree Days 0 0  
Month to date cooling degree days 0 0  
Year to date cooling degree days 957 787  
Moisture  
Dew Point 28 °F    
Average Humidity 66    
Maximum Humidity 92    
Minimum Humidity 40    
Precipitation  
Precipitation 0.34 in 0.13 in 1.33 in (1996)
Month to date precipitation 1.06 3.13  
Year to date precipitation 31.67 41.64  
Snow  
Snow T in 0.00 in - ()
Month to date snowfall 0.3 0.3  
Since 1 July snowfall 0.3 0.3  
Snow Depth 0.00 in    
Sea Level Pressure  
Sea Level Pressure 30.20 in    
Wind  
Wind Speed 8 mph (South)    
Max Wind Speed 25 mph    
Max Gust Speed 32 mph    
Visibility 9 miles    
Events Rain    
T = Trace of Precipitation, MM = Missing Value Source: NWS Daily Summary

Daily Weather History Graph

Daily Weather History Graph

Search for Another Location

Airport or City:

Trip Planner

Search our weather history database for the weather conditions in past years. The results will help you decide how hot, cold, wet, or windy it might be!

Date:

Astronomy

Nov. 26, 2013 Rise Set
Actual Time 6:52 AM EST 4:27 PM EST
Civil Twilight 6:22 AM EST 4:57 PM EST
Nautical Twilight 5:48 AM EST 5:31 PM EST
Astronomical Twilight 5:15 AM EST 6:03 PM EST
Moon No Moon Rise 12:34 PM EST (11/26)
Length of Visible Light 10h 35m
Length of Day
9h 34m
Last Quarter, 41% of the Moon is Illuminated
Nov 26
Last Quarter
Dec 2
New
Dec 9
First Quarter
Dec 17
Full
Dec 25
Last Quarter

Hourly Weather History & Observations

Time (EST) Temp. Windchill Dew Point Humidity Pressure Visibility Wind Dir Wind Speed Gust Speed Precip Events Conditions
12:56 AM 35.1 °F 27.4 °F 16.0 °F 46% 30.33 in 10.0 mi WSW 10.4 mph - N/A   Clear
1:56 AM 35.1 °F 26.4 °F 18.0 °F 50% 30.32 in 10.0 mi WSW 12.7 mph - N/A   Mostly Cloudy
2:56 AM 35.1 °F 28.6 °F 17.1 °F 48% 30.32 in 10.0 mi WSW 8.1 mph - N/A   Clear
3:56 AM 36.0 °F 28.5 °F 17.1 °F 46% 30.31 in 10.0 mi WSW 10.4 mph - N/A   Clear
4:56 AM 36.0 °F 28.5 °F 18.0 °F 48% 30.31 in 10.0 mi WSW 10.4 mph - N/A   Overcast
5:56 AM 37.0 °F 31.0 °F 19.0 °F 48% 30.31 in 10.0 mi WSW 8.1 mph - N/A   Overcast
6:56 AM 37.0 °F 32.4 °F 19.0 °F 48% 30.32 in 10.0 mi West 5.8 mph - N/A   Overcast
7:56 AM 37.0 °F 34.5 °F 19.0 °F 48% 30.31 in 10.0 mi WSW 3.5 mph - N/A   Overcast
8:56 AM 39.0 °F 35.7 °F 18.0 °F 43% 30.31 in 10.0 mi SW 4.6 mph - N/A   Overcast
9:56 AM 39.9 °F 35.8 °F 17.1 °F 40% 30.33 in 10.0 mi WSW 5.8 mph - N/A   Overcast
10:56 AM 41.0 °F 35.8 °F 19.0 °F 41% 30.30 in 10.0 mi WSW 8.1 mph - N/A   Overcast
11:56 AM 42.1 °F 37.7 °F 21.0 °F 43% 30.28 in 10.0 mi SW 6.9 mph - N/A   Overcast
12:56 PM 42.1 °F 37.7 °F 21.0 °F 43% 30.27 in 10.0 mi SSW 6.9 mph - 0.00 in Rain Light Rain
1:44 PM 42.8 °F 38.6 °F 23.0 °F 46% 30.25 in 10.0 mi SW 6.9 mph - 0.00 in Rain Light Rain
1:56 PM 41.0 °F 37.1 °F 24.1 °F 51% 30.25 in 10.0 mi SW 5.8 mph - 0.00 in Rain Light Rain
2:56 PM 39.0 °F 35.7 °F 25.0 °F 57% 30.23 in 8.0 mi South 4.6 mph - 0.00 in Rain Light Rain
3:56 PM 37.9 °F - 30.0 °F 73% 30.21 in 8.0 mi Calm Calm - 0.00 in Rain Light Rain
4:56 PM 37.9 °F 34.4 °F 32.0 °F 79% 30.19 in 9.0 mi East 4.6 mph - 0.02 in Rain Light Rain
5:56 PM 37.9 °F 34.4 °F 34.0 °F 86% 30.17 in 7.0 mi East 4.6 mph - 0.04 in Rain Light Rain
6:56 PM 39.0 °F 34.8 °F 36.0 °F 89% 30.15 in 6.0 mi East 5.8 mph - 0.04 in Rain Light Rain
7:54 PM 41.0 °F 37.1 °F 37.4 °F 87% 30.10 in 7.0 mi East 5.8 mph - 0.01 in Rain Light Rain
7:56 PM 41.0 °F 37.1 °F 37.9 °F 89% 30.10 in 7.0 mi ENE 5.8 mph - 0.01 in Rain Light Rain
8:14 PM 42.8 °F 38.0 °F 39.2 °F 87% 30.08 in 6.0 mi East 8.1 mph - 0.00 in Rain Light Rain
8:35 PM 42.8 °F 37.5 °F 39.2 °F 87% 30.06 in 6.0 mi East 9.2 mph - 0.00 in Rain Light Rain
8:56 PM 45.0 °F 40.6 °F 42.1 °F 90% 30.05 in 6.0 mi East 8.1 mph - 0.00 in Rain Light Rain
9:56 PM 50.0 °F - 46.9 °F 89% 29.99 in 7.0 mi East 13.8 mph 24.2 mph 0.03 in Rain Light Rain
10:56 PM 51.1 °F - 48.9 °F 92% 29.91 in 6.0 mi ESE 19.6 mph 26.5 mph 0.09 in Rain Light Rain
11:56 PM 53.1 °F - 51.1 °F 93% 29.82 in 8.0 mi ESE 20.7 mph 28.8 mph 0.10 in Rain Light Rain